TimePDT,TemperatureF,Dew PointF,Humidity,Sea Level PressureIn,VisibilityMPH,Wind Direction,Wind SpeedMPH,Gust SpeedMPH,PrecipitationIn,Events,Conditions,WindDirDegrees,DateUTC
12:15 AM,60.8,41.0,48,30.40,10.0,Calm,Calm,-,N/A,,Scattered Clouds,0,2013-08-19 07:15:00
12:35 AM,59.0,42.8,55,30.39,10.0,West,10.4,19.6,N/A,,Scattered Clouds,270,2013-08-19 07:35:00
12:55 AM,57.2,42.8,59,30.38,10.0,West,13.8,19.6,N/A,,Clear,280,2013-08-19 07:55:00
1:15 AM,57.2,42.8,59,30.37,10.0,Calm,Calm,-,N/A,,Clear,0,2013-08-19 08:15:00
1:35 AM,57.2,42.8,59,30.36,10.0,West,8.1,-,N/A,,Clear,280,2013-08-19 08:35:00
1:55 AM,55.4,42.8,63,30.35,10.0,Calm,Calm,-,N/A,,Clear,0,2013-08-19 08:55:00
2:55 AM,51.8,39.2,62,30.34,10.0,Calm,Calm,-,N/A,,Clear,0,2013-08-19 09:55:00
3:15 AM,51.8,41.0,67,30.34,10.0,Calm,Calm,-,N/A,,Clear,0,2013-08-19 10:15:00
3:35 AM,48.2,39.2,71,30.33,10.0,NNW,5.8,-,N/A,,Clear,340,2013-08-19 10:35:00
3:55 AM,48.2,39.2,71,30.33,10.0,North,3.5,-,N/A,,Clear,10,2013-08-19 10:55:00
4:15 AM,50.0,39.2,66,30.33,10.0,Calm,Calm,-,N/A,,Clear,0,2013-08-19 11:15:00
4:35 AM,50.0,39.2,66,30.32,10.0,Calm,Calm,-,N/A,,Clear,0,2013-08-19 11:35:00
4:55 AM,50.0,39.2,66,30.32,10.0,Calm,Calm,-,N/A,,Clear,0,2013-08-19 11:55:00
5:15 AM,48.2,37.4,66,30.33,10.0,Calm,Calm,-,N/A,,Clear,0,2013-08-19 12:15:00
5:35 AM,46.4,37.4,71,30.33,10.0,Calm,Calm,-,N/A,,Clear,0,2013-08-19 12:35:00
5:55 AM,46.4,37.4,71,30.33,10.0,Calm,Calm,-,N/A,,Clear,0,2013-08-19 12:55:00
6:15 AM,46.4,39.2,76,30.33,10.0,SW,3.5,-,N/A,,Clear,220,2013-08-19 13:15:00
6:35 AM,46.4,37.4,71,30.34,10.0,Calm,Calm,-,N/A,,Clear,0,2013-08-19 13:35:00
6:55 AM,46.4,37.4,71,30.34,10.0,Calm,Calm,-,N/A,,Clear,0,2013-08-19 13:55:00
7:15 AM,48.2,39.2,71,30.35,10.0,Calm,Calm,-,N/A,,Clear,0,2013-08-19 14:15:00
7:35 AM,50.0,39.2,66,30.35,10.0,Calm,Calm,-,N/A,,Clear,0,2013-08-19 14:35:00
7:55 AM,51.8,41.0,67,30.36,10.0,Calm,Calm,-,N/A,,Clear,0,2013-08-19 14:55:00
8:15 AM,55.4,41.0,58,30.36,10.0,Calm,Calm,-,N/A,,Clear,0,2013-08-19 15:15:00
8:35 AM,59.0,41.0,51,30.36,10.0,Calm,Calm,-,N/A,,Clear,0,2013-08-19 15:35:00
8:55 AM,60.8,41.0,48,30.36,10.0,Calm,Calm,-,N/A,,Clear,0,2013-08-19 15:55:00
9:15 AM,64.4,41.0,42,30.36,10.0,Calm,Calm,-,N/A,,Clear,0,2013-08-19 16:15:00
9:35 AM,66.2,39.2,37,30.36,10.0,Calm,Calm,-,N/A,,Clear,0,2013-08-19 16:35:00
9:55 AM,66.2,41.0,40,30.35,10.0,Calm,Calm,-,N/A,,Clear,0,2013-08-19 16:55:00
10:15 AM,69.8,41.0,35,30.35,10.0,SE,5.8,-,N/A,,Clear,140,2013-08-19 17:15:00
10:35 AM,71.6,41.0,33,30.35,10.0,SE,5.8,-,N/A,,Clear,140,2013-08-19 17:35:00
10:55 AM,73.4,41.0,31,30.35,10.0,ESE,6.9,-,N/A,,Clear,110,2013-08-19 17:55:00
11:15 AM,73.4,39.2,29,30.35,10.0,ESE,6.9,-,N/A,,Clear,110,2013-08-19 18:15:00
11:35 AM,77.0,35.6,22,30.34,10.0,SE,6.9,16.1,N/A,,Clear,140,2013-08-19 18:35:00
11:55 AM,77.0,35.6,22,30.33,10.0,ESE,6.9,-,N/A,,Clear,120,2013-08-19 18:55:00
12:15 PM,78.8,37.4,23,30.32,10.0,ESE,9.2,-,N/A,,Clear,120,2013-08-19 19:15:00
12:35 PM,80.6,37.4,21,30.32,10.0,East,12.7,18.4,N/A,,Clear,100,2013-08-19 19:35:00
12:55 PM,80.6,37.4,21,30.32,10.0,ESE,8.1,19.6,N/A,,Clear,120,2013-08-19 19:55:00
1:15 PM,82.4,37.4,20,30.30,10.0,ESE,11.5,17.3,N/A,,Clear,120,2013-08-19 20:15:00
1:35 PM,80.6,37.4,21,30.30,10.0,ESE,10.4,18.4,N/A,,Clear,120,2013-08-19 20:35:00
1:55 PM,78.8,39.2,24,30.29,10.0,ESE,13.8,18.4,N/A,,Clear,110,2013-08-19 20:55:00
2:15 PM,82.4,37.4,20,30.28,10.0,ESE,11.5,19.6,N/A,,Clear,120,2013-08-19 21:15:00
2:35 PM,77.0,37.4,24,30.28,10.0,ESE,13.8,19.6,N/A,,Clear,110,2013-08-19 21:35:00
2:55 PM,75.2,37.4,25,30.28,10.0,ESE,11.5,-,N/A,,Scattered Clouds,110,2013-08-19 21:55:00
3:15 PM,73.4,37.4,27,30.27,10.0,South,17.3,-,N/A,,Mostly Cloudy,180,2013-08-19 22:15:00
3:35 PM,75.2,35.6,24,30.27,10.0,SW,16.1,20.7,N/A,,Overcast,230,2013-08-19 22:35:00
3:55 PM,75.2,35.6,24,30.27,10.0,West,12.7,18.4,N/A,,Light Drizzle,260,2013-08-19 22:55:00
4:15 PM,73.4,39.2,29,30.28,10.0,West,11.5,18.4,N/A,,Scattered Clouds,270,2013-08-19 23:15:00
4:35 PM,69.8,42.8,38,30.29,10.0,WNW,17.3,29.9,N/A,,Scattered Clouds,290,2013-08-19 23:35:00
4:55 PM,69.8,42.8,38,30.30,10.0,West,21.9,28.8,N/A,,Mostly Cloudy,280,2013-08-19 23:55:00
5:15 PM,66.2,46.4,49,30.30,10.0,WNW,16.1,28.8,N/A,,Overcast,300,2013-08-20 00:15:00
5:35 PM,64.4,44.6,49,30.30,10.0,West,9.2,-,N/A,Rain,Light Rain,280,2013-08-20 00:35:00
5:55 PM,68.0,39.2,35,30.30,10.0,WNW,10.4,25.3,N/A,,Scattered Clouds,290,2013-08-20 00:55:00
6:15 PM,66.2,42.8,43,30.30,10.0,WNW,9.2,-,N/A,,Overcast,290,2013-08-20 01:15:00
6:35 PM,60.8,48.2,63,30.32,10.0,WNW,21.9,28.8,N/A,Rain,Light Rain,290,2013-08-20 01:35:00
6:55 PM,60.8,44.6,55,30.32,10.0,NW,12.7,20.7,N/A,,Light Drizzle,310,2013-08-20 01:55:00
7:15 PM,60.8,44.6,55,30.33,10.0,NW,9.2,19.6,N/A,Rain,Light Rain,310,2013-08-20 02:15:00
7:35 PM,60.8,44.6,55,30.34,10.0,West,5.8,-,N/A,,Mostly Cloudy,280,2013-08-20 02:35:00
7:55 PM,60.8,44.6,55,30.36,10.0,West,6.9,-,N/A,,Overcast,260,2013-08-20 02:55:00
8:15 PM,60.8,46.4,59,30.36,10.0,WNW,11.5,18.4,N/A,Rain,Light Rain,290,2013-08-20 03:15:00
8:35 PM,57.2,50.0,77,30.36,10.0,West,13.8,19.6,N/A,Rain,Light Rain,270,2013-08-20 03:35:00
8:55 PM,57.2,48.2,72,30.36,10.0,NW,8.1,17.3,N/A,,Overcast,320,2013-08-20 03:55:00
9:15 PM,57.2,48.2,72,30.36,10.0,West,3.5,-,N/A,,Overcast,260,2013-08-20 04:15:00
9:35 PM,57.2,46.4,67,30.36,10.0,Calm,Calm,-,N/A,Rain,Light Rain,0,2013-08-20 04:35:00
9:55 PM,57.2,46.4,67,30.36,10.0,South,3.5,-,N/A,,Mostly Cloudy,190,2013-08-20 04:55:00
10:15 PM,57.2,46.4,67,30.35,10.0,SW,4.6,-,N/A,,Scattered Clouds,220,2013-08-20 05:15:00
10:35 PM,59.0,44.6,59,30.34,10.0,SSW,3.5,-,N/A,,Scattered Clouds,200,2013-08-20 05:35:00
10:55 PM,57.2,46.4,67,30.33,10.0,NW,3.5,-,N/A,,Clear,310,2013-08-20 05:55:00
11:15 PM,55.4,46.4,72,30.33,10.0,WNW,4.6,-,N/A,,Clear,300,2013-08-20 06:15:00
11:35 PM,53.6,46.4,77,30.32,10.0,Calm,Calm,-,N/A,,Clear,0,2013-08-20 06:35:00
11:55 PM,55.4,46.4,72,30.32,10.0,West,5.8,-,N/A,,Clear,260,2013-08-20 06:55:00